TimeCDT,TemperatureF,Dew PointF,Humidity,Sea Level PressureIn,VisibilityMPH,Wind Direction,Wind SpeedMPH,Gust SpeedMPH,PrecipitationIn,Events,Conditions,WindDirDegrees,DateUTC
12:15 AM,57.2,32.0,38,29.69,10.0,WSW,25.3,35.7,N/A,,Overcast,250,2013-03-10 06:15:00
12:35 AM,57.2,32.0,38,29.70,10.0,SW,13.8,20.7,N/A,,Overcast,220,2013-03-10 06:35:00
12:55 AM,55.4,35.6,47,29.70,10.0,SW,10.4,-,N/A,,Mostly Cloudy,220,2013-03-10 06:55:00
1:15 AM,53.6,35.6,51,29.70,10.0,WSW,10.4,-,N/A,,Mostly Cloudy,240,2013-03-10 07:15:00
1:35 AM,48.2,39.2,71,29.69,10.0,NW,12.7,21.9,N/A,,Scattered Clouds,310,2013-03-10 07:35:00
1:55 AM,46.4,39.2,76,29.72,10.0,WNW,16.1,26.5,N/A,,Mostly Cloudy,300,2013-03-10 07:55:00
3:15 AM,44.6,37.4,76,29.73,10.0,NW,15.0,-,N/A,,Mostly Cloudy,310,2013-03-10 08:15:00
3:35 AM,42.8,37.4,81,29.72,10.0,NW,13.8,24.2,N/A,,Mostly Cloudy,310,2013-03-10 08:35:00
3:55 AM,41.0,35.6,81,29.69,10.0,NW,16.1,-,N/A,,Scattered Clouds,310,2013-03-10 08:55:00
4:15 AM,41.0,35.6,81,29.75,10.0,WNW,15.0,-,N/A,,Clear,290,2013-03-10 09:15:00
4:35 AM,41.0,35.6,81,29.74,10.0,WNW,11.5,-,N/A,,Scattered Clouds,300,2013-03-10 09:35:00
4:55 AM,41.0,35.6,81,29.73,10.0,NW,10.4,-,N/A,,Overcast,310,2013-03-10 09:55:00
5:15 AM,41.0,35.6,81,29.73,10.0,WNW,11.5,-,N/A,,Overcast,290,2013-03-10 10:15:00
5:35 AM,41.0,35.6,81,29.75,10.0,WNW,10.4,-,N/A,,Overcast,290,2013-03-10 10:35:00
5:55 AM,41.0,35.6,81,29.75,10.0,NW,13.8,-,N/A,,Mostly Cloudy,320,2013-03-10 10:55:00
6:15 AM,41.0,35.6,81,29.76,10.0,NNW,18.4,25.3,N/A,,Mostly Cloudy,330,2013-03-10 11:15:00
7:15 AM,37.4,35.6,93,29.79,7.0,NNW,20.7,29.9,N/A,,Mostly Cloudy,340,2013-03-10 12:15:00
7:35 AM,37.4,35.6,93,29.79,10.0,North,16.1,23.0,N/A,,Mostly Cloudy,350,2013-03-10 12:35:00
7:55 AM,37.4,33.8,87,29.81,10.0,NNW,18.4,23.0,N/A,,Overcast,330,2013-03-10 12:55:00
8:15 AM,37.4,32.0,81,29.82,10.0,NNW,15.0,25.3,N/A,,Overcast,330,2013-03-10 13:15:00
8:35 AM,37.4,32.0,81,29.83,10.0,NNW,12.7,24.2,N/A,,Overcast,340,2013-03-10 13:35:00
8:55 AM,37.4,32.0,81,29.84,10.0,NNW,23.0,29.9,N/A,,Mostly Cloudy,330,2013-03-10 13:55:00
9:15 AM,35.6,32.0,87,29.85,2.5,NW,19.6,28.8,N/A,Rain,Light Rain,320,2013-03-10 14:15:00
9:35 AM,35.6,35.6,100,29.86,1.8,NNW,19.6,25.3,N/A,Rain,Light Rain,330,2013-03-10 14:35:00
9:55 AM,35.6,33.8,93,29.87,4.0,NNW,16.1,24.2,N/A,Rain,Light Rain,340,2013-03-10 14:55:00
10:15 AM,35.6,32.0,87,29.88,6.0,NNW,20.7,29.9,N/A,,Mostly Cloudy,330,2013-03-10 15:15:00
10:35 AM,35.6,33.8,93,29.89,3.0,NNW,19.6,29.9,N/A,Rain,Light Rain,340,2013-03-10 15:35:00
10:55 AM,35.6,32.0,87,29.90,10.0,NNW,17.3,26.5,N/A,,Mostly Cloudy,340,2013-03-10 15:55:00
11:15 AM,35.6,32.0,87,29.91,10.0,NNW,16.1,23.0,N/A,,Overcast,340,2013-03-10 16:15:00
11:35 AM,37.4,32.0,81,29.91,10.0,NNW,19.6,28.8,N/A,,Overcast,340,2013-03-10 16:35:00
11:55 AM,35.6,32.0,87,29.92,10.0,NNW,20.7,32.2,N/A,,Overcast,330,2013-03-10 16:55:00
12:15 PM,35.6,30.2,81,29.93,10.0,NNW,17.3,33.4,N/A,,Overcast,340,2013-03-10 17:15:00
12:35 PM,35.6,28.4,75,29.95,10.0,NNW,20.7,31.1,N/A,,Overcast,330,2013-03-10 17:35:00
12:55 PM,35.6,28.4,75,29.95,10.0,NW,24.2,31.1,N/A,,Overcast,320,2013-03-10 17:55:00
1:15 PM,35.6,28.4,75,29.96,10.0,NNW,24.2,31.1,N/A,,Overcast,340,2013-03-10 18:15:00
1:35 PM,35.6,26.6,70,29.96,10.0,NNW,19.6,28.8,N/A,,Overcast,330,2013-03-10 18:35:00
1:55 PM,37.4,26.6,65,29.96,10.0,NNW,21.9,29.9,N/A,,Overcast,330,2013-03-10 18:55:00
2:15 PM,37.4,26.6,65,29.97,10.0,NNW,18.4,26.5,N/A,,Overcast,330,2013-03-10 19:15:00
2:55 PM,37.4,26.6,65,29.97,10.0,NNW,15.0,27.6,N/A,,Overcast,330,2013-03-10 19:55:00
3:15 PM,37.4,26.6,65,29.97,10.0,NW,19.6,26.5,N/A,,Overcast,320,2013-03-10 20:15:00
3:35 PM,39.2,26.6,61,29.97,10.0,NNW,17.3,26.5,N/A,,Overcast,340,2013-03-10 20:35:00
3:55 PM,39.2,26.6,61,29.98,10.0,NNW,20.7,25.3,N/A,,Overcast,340,2013-03-10 20:55:00
4:15 PM,39.2,26.6,61,29.98,10.0,NNW,18.4,-,N/A,,Overcast,340,2013-03-10 21:15:00
4:35 PM,37.4,26.6,65,29.99,10.0,North,16.1,24.2,N/A,,Overcast,350,2013-03-10 21:35:00
4:55 PM,37.4,26.6,65,30.00,10.0,North,15.0,20.7,N/A,,Overcast,350,2013-03-10 21:55:00
5:15 PM,37.4,26.6,65,29.99,10.0,NNW,17.3,24.2,N/A,,Overcast,340,2013-03-10 22:15:00
5:35 PM,37.4,26.6,65,30.00,10.0,North,15.0,23.0,N/A,,Overcast,350,2013-03-10 22:35:00
5:55 PM,37.4,26.6,65,30.01,10.0,North,11.5,-,N/A,,Overcast,350,2013-03-10 22:55:00
6:15 PM,37.4,26.6,65,30.01,10.0,NNW,16.1,24.2,N/A,,Overcast,340,2013-03-10 23:15:00
6:55 PM,35.6,26.6,70,30.03,10.0,NNW,12.7,-,N/A,,Overcast,340,2013-03-10 23:55:00
7:15 PM,35.6,26.6,70,30.03,10.0,NNW,10.4,17.3,N/A,,Overcast,340,2013-03-11 00:15:00
7:35 PM,35.6,26.6,70,30.04,10.0,North,10.4,-,N/A,,Overcast,350,2013-03-11 00:35:00
7:55 PM,35.6,26.6,70,30.04,10.0,North,8.1,16.1,N/A,,Overcast,350,2013-03-11 00:55:00
8:15 PM,35.6,26.6,70,30.05,10.0,North,8.1,-,N/A,,Overcast,350,2013-03-11 01:15:00
8:35 PM,35.6,26.6,70,30.05,10.0,North,10.4,-,N/A,,Overcast,350,2013-03-11 01:35:00
8:55 PM,35.6,26.6,70,30.06,10.0,NNW,9.2,-,N/A,,Overcast,340,2013-03-11 01:55:00
9:15 PM,35.6,26.6,70,30.06,10.0,North,6.9,-,N/A,,Overcast,350,2013-03-11 02:15:00
9:35 PM,33.8,26.6,75,30.07,10.0,NNW,5.8,-,N/A,,Overcast,330,2013-03-11 02:35:00
9:55 PM,33.8,26.6,75,30.08,10.0,NW,4.6,-,N/A,,Overcast,320,2013-03-11 02:55:00
10:15 PM,33.8,28.4,81,30.09,10.0,NW,4.6,-,N/A,,Overcast,310,2013-03-11 03:15:00
10:35 PM,33.8,28.4,81,30.09,10.0,NW,5.8,-,N/A,,Overcast,320,2013-03-11 03:35:00
10:55 PM,33.8,28.4,81,30.09,10.0,NW,4.6,-,N/A,,Overcast,310,2013-03-11 03:55:00
11:15 PM,33.8,28.4,81,30.09,10.0,NW,5.8,-,N/A,,Overcast,310,2013-03-11 04:15:00
11:35 PM,33.8,28.4,81,30.09,10.0,NW,4.6,-,N/A,,Overcast,310,2013-03-11 04:35:00
11:55 PM,33.8,28.4,81,30.08,10.0,NW,4.6,-,N/A,,Overcast,310,2013-03-11 04:55:00
12:15 AM,33.8,28.4,81,30.07,10.0,WNW,4.6,-,N/A,,Overcast,300,2013-03-11 05:15:00
12:35 AM,33.8,28.4,81,30.07,10.0,WNW,5.8,-,N/A,,Overcast,300,2013-03-11 05:35:00
12:55 AM,33.8,28.4,81,30.06,10.0,WNW,4.6,-,N/A,,Overcast,290,2013-03-11 05:55:00